| time (UTC) | temp C | wind direction | speed KPH | gust KPH | rain 1hr cm | rain 24hr cm | rain mn cm | humidity % | barometer mb |
| 20260509043053 | 8 | 145 | 4.8 | 11.3 | 0.00 | 0.00 | 0.00 | 43 | 1001.3 |
| 20260509041538 | 8 | 133 | 3.2 | 8.0 | 0.00 | 0.00 | 0.00 | 42 | 1001.4 |
| 20260509040038 | 8 | 134 | 3.2 | 6.4 | 0.00 | 0.00 | 0.00 | 43 | 1001.4 |
| 20260509034537 | 8 | 140 | 3.2 | 4.8 | 0.00 | 0.00 | 0.00 | 45 | 1001.6 |
| 20260509033026 | 9 | 140 | 3.2 | 6.4 | 0.00 | 0.00 | 0.00 | 41 | 1001.6 |
| 20260509031527 | 8 | 140 | 1.6 | 6.4 | 0.00 | 0.00 | 0.00 | 42 | 1001.7 |
| 20260509030031 | 8 | 136 | 1.6 | 3.2 | 0.00 | 0.00 | 0.00 | 44 | 1001.9 |
| 20260509024506 | 9 | 136 | 0.0 | 3.2 | 0.00 | 0.00 | 0.00 | 42 | 1002.0 |
| 20260509023100 | 9 | 129 | 1.6 | 4.8 | 0.00 | 0.00 | 0.00 | 42 | 1002.2 |
| 20260509021553 | 9 | 136 | 3.2 | 4.8 | 0.00 | 0.00 | 0.00 | 43 | 1002.3 |
| 20260509020100 | 9 | 136 | 1.6 | 3.2 | 0.00 | 0.00 | 0.00 | 42 | 1002.3 |
| 20260509014549 | 10 | 136 | 0.0 | 4.8 | 0.00 | 0.00 | 0.00 | 44 | 1002.2 |
| 20260509013049 | 10 | 117 | 0.0 | 1.6 | 0.00 | 0.00 | 0.00 | 38 | 1002.0 |
| 20260509011553 | 11 | 117 | 0.0 | 1.6 | 0.00 | 0.00 | 0.00 | 34 | 1001.9 |
| 20260509010047 | 12 | 117 | 1.6 | 3.2 | 0.00 | 0.00 | 0.00 | 27 | 1002.1 |
| 20260509004543 | 13 | 118 | 1.6 | 3.2 | 0.00 | 0.00 | 0.00 | 25 | 1002.0 |
| 20260509003027 | 15 | 231 | 1.6 | 6.4 | 0.00 | 0.00 | 0.00 | 20 | 1002.1 |
| 20260509001514 | 15 | 258 | 3.2 | 8.0 | 0.00 | 0.00 | 0.00 | 20 | 1002.2 |
| 20260509000010 | 16 | 253 | 3.2 | 12.9 | 0.00 | 0.00 | 0.00 | 20 | 1002.4 |
| 20260508234512 | 16 | 283 | 6.4 | 16.1 | 0.00 | 0.00 | 0.00 | 21 | 1002.6 |
| 20260508233008 | 16 | 260 | 8.0 | 14.5 | 0.00 | 0.00 | 0.00 | 1002.7 | |
| 20260508231505 | 16 | 261 | 8.0 | 0.0 | 0.00 | 0.00 | 0.00 | 21 | 1002.6 |
| 20260508230005 | 16 | 274 | 9.7 | 22.5 | 0.00 | 0.00 | 0.00 | 22 | 1002.6 |
| 20260508224502 | 17 | 292 | 11.3 | 19.3 | 0.00 | 0.00 | 0.00 | 21 | 1002.5 |
| 20260508223003 | 17 | 259 | 14.5 | 22.5 | 0.00 | 0.00 | 0.00 | 20 | 1002.6 |
| 20260508221601 | 17 | 265 | 8.0 | 22.5 | 0.00 | 0.00 | 0.00 | 1002.7 | |
| 20260508220052 | 17 | 317 | 9.7 | 19.3 | 0.00 | 0.00 | 0.00 | 22 | 1002.7 |
| 20260508214547 | 18 | 312 | 9.7 | 24.1 | 0.00 | 0.00 | 0.00 | 19 | 1002.8 |
| 20260508213045 | 18 | 261 | 16.1 | 25.7 | 0.00 | 0.00 | 0.00 | 19 | 1002.8 |
| 20260508211550 | 18 | 251 | 12.9 | 24.1 | 0.00 | 0.00 | 0.00 | 18 | 1002.9 |
| 20260508210046 | 18 | 266 | 14.5 | 27.4 | 0.00 | 0.00 | 0.00 | 20 | 1002.8 |
| 20260508204539 | 18 | 212 | 9.7 | 29.0 | 0.00 | 0.00 | 0.00 | 22 | 1003.0 |
| 20260508203043 | 18 | 253 | 9.7 | 33.8 | 0.00 | 0.00 | 0.00 | 23 | 1003.2 |
| 20260508201536 | 18 | 287 | 17.7 | 25.7 | 0.00 | 0.00 | 0.00 | 21 | 1003.3 |
| 20260508200025 | 18 | 300 | 16.1 | 27.4 | 0.00 | 0.00 | 0.00 | 20 | 1003.5 |
| 20260508194520 | 18 | 212 | 14.5 | 24.1 | 0.00 | 0.00 | 0.00 | 22 | 1003.7 |
| 20260508193018 | 18 | 294 | 14.5 | 24.1 | 0.00 | 0.00 | 0.00 | 21 | 1003.7 |
| 20260508191520 | 19 | 228 | 8.0 | 20.9 | 0.00 | 0.00 | 0.00 | 22 | 1004.0 |
| 20260508190019 | 17 | 290 | 17.7 | 24.1 | 0.00 | 0.00 | 0.00 | 21 | 1004.0 |
| 20260508184520 | 18 | 205 | 8.0 | 24.1 | 0.00 | 0.00 | 0.00 | 21 | 1004.2 |
| 20260508183019 | 18 | 232 | 8.0 | 25.7 | 0.00 | 0.00 | 0.00 | 23 | 1004.3 |
| 20260508181514 | 18 | 240 | 9.7 | 24.1 | 0.00 | 0.00 | 0.00 | 22 | 1004.5 |
| 20260508180054 | 17 | 295 | 14.5 | 27.4 | 0.00 | 0.00 | 0.00 | 24 | 1004.5 |
| 20260508174557 | 18 | 325 | 11.3 | 27.4 | 0.00 | 0.00 | 0.00 | 22 | 1004.8 |
| 20260508173050 | 18 | 303 | 11.3 | 22.5 | 0.00 | 0.00 | 0.00 | 23 | 1005.1 |
| 20260508171546 | 18 | 292 | 11.3 | 25.7 | 0.00 | 0.00 | 0.00 | 24 | 1005.3 |
| 20260508170046 | 18 | 293 | 16.1 | 25.7 | 0.00 | 0.00 | 0.00 | 22 | 1005.5 |
| 20260508164542 | 18 | 284 | 6.4 | 24.1 | 0.00 | 0.00 | 0.00 | 25 | 1005.7 |
| 20260508163039 | 18 | 301 | 8.0 | 17.7 | 0.00 | 0.00 | 0.00 | 26 | 1006.2 |
| 20260508161536 | 17 | 200 | 3.2 | 16.1 | 0.00 | 0.00 | 0.00 | 28 | 1006.2 |
| 20260508160025 | 16 | 307 | 8.0 | 17.7 | 0.00 | 0.00 | 0.00 | 30 | 1006.3 |
| 20260508154522 | 15 | 331 | 3.2 | 17.7 | 0.00 | 0.00 | 0.00 | 33 | 1006.4 |
| 20260508153019 | 17 | 246 | 3.2 | 20.9 | 0.00 | 0.00 | 0.00 | 29 | 1006.4 |
| 20260508151518 | 17 | 265 | 6.4 | 16.1 | 0.00 | 0.00 | 0.00 | 33 | 1006.5 |
| 20260508150035 | 15 | 247 | 6.4 | 22.5 | 0.00 | 0.00 | 0.00 | 33 | 1006.7 |
| 20260508144514 | 16 | 213 | 8.0 | 14.5 | 0.00 | 0.00 | 0.00 | 35 | 1006.8 |
| 20260508143014 | 14 | 245 | 3.2 | 9.7 | 0.00 | 0.00 | 0.00 | 49 | 1006.8 |
| 20260508141509 | 12 | 203 | 6.4 | 11.3 | 0.00 | 0.00 | 0.00 | 53 | 1007.1 |
| 20260508140107 | 11 | 138 | 3.2 | 11.3 | 0.00 | 0.00 | 0.00 | 62 | 1007.0 |
| 20260508134556 | 12 | 117 | 3.2 | 11.3 | 0.00 | 0.00 | 0.00 | 61 | 1007.1 |
| 20260508133104 | 11 | 153 | 3.2 | 9.7 | 0.00 | 0.00 | 0.00 | 1007.2 | |
| 20260508131550 | 10 | 149 | 4.8 | 9.7 | 0.00 | 0.00 | 0.00 | 71 | 1007.3 |
| 20260508130046 | 8 | 127 | 3.2 | 6.4 | 0.00 | 0.00 | 0.00 | 74 | 1007.3 |
| 20260508124545 | 8 | 161 | 0.0 | 4.8 | 0.00 | 0.00 | 0.00 | 75 | 1007.4 |
| 20260508123042 | 6 | 202 | 1.6 | 4.8 | 0.00 | 0.00 | 0.00 | 80 | 1007.5 |
| 20260508121540 | 5 | 146 | 1.6 | 4.8 | 0.00 | 0.00 | 0.00 | 85 | 1007.1 |
| 20260508120025 | 4 | 144 | 0.0 | 0.0 | 0.00 | 0.00 | 0.00 | 88 | 1006.9 |
| 20260508114529 | 3 | 140 | 0.0 | 0.0 | 0.00 | 0.00 | 0.00 | 91 | 1006.9 |
| 20260508113024 | 2 | 144 | 0.0 | 0.0 | 0.00 | 0.00 | 0.00 | 92 | 1006.8 |
| 20260508111521 | 2 | 144 | 0.0 | 0.0 | 0.00 | 0.00 | 0.00 | 93 | 1006.7 |
| 20260508110020 | 1 | 144 | 0.0 | 0.0 | 0.00 | 0.00 | 0.00 | 92 | 1006.7 |
| 20260508104520 | 0 | 144 | 0.0 | 0.0 | 0.00 | 0.00 | 0.00 | 92 | 1006.6 |
| 20260508103020 | 0 | 61 | 0.0 | 0.0 | 0.00 | 0.00 | 0.00 | 91 | 1006.4 |
| 20260508101520 | 1 | 47 | 0.0 | 0.0 | 0.00 | 0.00 | 0.00 | 91 | 1006.4 |
| 20260508100002 | 1 | 47 | 0.0 | 0.0 | 0.00 | 0.00 | 0.00 | 90 | 1006.5 |
| 20260508094502 | 1 | 47 | 0.0 | 0.0 | 0.00 | 0.00 | 0.00 | 90 | 1006.5 |
| 20260508093002 | 1 | 57 | 0.0 | 0.0 | 0.00 | 0.00 | 0.00 | 90 | 1006.6 |
| 20260508091501 | 1 | 93 | 0.0 | 0.0 | 0.00 | 0.00 | 0.00 | 91 | 1006.6 |
| 20260508090103 | 1 | 153 | 0.0 | 0.0 | 0.00 | 0.00 | 0.00 | 90 | 1006.7 |
| 20260508084613 | 2 | 153 | 0.0 | 0.0 | 0.00 | 0.00 | 0.00 | 89 | 1006.6 |
| 20260508083106 | 2 | 153 | 0.0 | 1.6 | 0.00 | 0.00 | 0.00 | 86 | 1006.7 |
| 20260508081554 | 2 | 153 | 0.0 | 0.0 | 0.00 | 0.00 | 0.00 | 1006.7 | |
| 20260508080054 | 2 | 153 | 0.0 | 1.6 | 0.00 | 0.00 | 0.00 | 86 | 1006.7 |
| 20260508074542 | 2 | 153 | 0.0 | 0.0 | 0.00 | 0.00 | 0.00 | 85 | 1006.7 |
| 20260508073041 | 2 | 153 | 0.0 | 0.0 | 0.00 | 0.00 | 0.00 | 85 | 1006.9 |
| 20260508071533 | 3 | 153 | 0.0 | 0.0 | 0.00 | 0.00 | 0.00 | 83 | 1007.1 |
| 20260508070033 | 3 | 153 | 0.0 | 0.0 | 0.00 | 0.00 | 0.00 | 81 | 1007.3 |
| 20260508064544 | 3 | 153 | 0.0 | 0.0 | 0.00 | 0.00 | 0.00 | 82 | 1007.3 |
| 20260508063030 | 3 | 153 | 0.0 | 4.8 | 0.00 | 0.00 | 0.00 | 1007.4 | |
| 20260508061531 | 4 | 161 | 3.2 | 6.4 | 0.00 | 0.00 | 0.00 | 77 | 1007.4 |
| 20260508060014 | 4 | 355 | 0.0 | 0.0 | 0.00 | 0.00 | 0.00 | 74 | 1007.6 |
| 20260508054521 | 4 | 347 | 0.0 | 0.0 | 0.00 | 0.00 | 0.00 | 75 | 1007.5 |
| 20260508053010 | 4 | 13 | 0.0 | 1.6 | 0.00 | 0.00 | 0.00 | 78 | 1007.4 |
| 20260508051508 | 4 | 316 | 0.0 | 1.6 | 0.00 | 0.00 | 0.00 | 83 | 1007.4 |
| 20260508050009 | 4 | 288 | 0.0 | 0.0 | 0.00 | 0.00 | 0.00 | 83 | 1007.5 |
| 20260508044505 | 4 | 288 | 0.0 | 0.0 | 0.00 | 0.00 | 0.00 | 1007.5 |